Location: Marcé
(47.5801°N, 0.3280°W)
Time: 23:47:05
(UTC+01:00)

Vanguard 2 - Pass Details

Date: 07 December 2021
Orbit: 553 x 2936 km, 32.9° (Epoch: 20 January)

Event Time Altitude Azimuth Distance (km) Brightness Sun altitude
Rises 17:59:46 0° 250° (WSW) 3,527 13.4 -8.1°
Reaches altitude 10° 18:03:31 10° 224° (SW) 2,962 11.8 -8.7°
Maximum altitude 18:07:00 14° 196° (SSW) 3,030 11.1 -9.2°
Drops below altitude 10° 18:11:13 10° 168° (SSE) 3,760 11.2 -9.9°
Sets 18:17:21 0° 148° (SSE) 5,348 11.7 -10.9°
